Weather History for Nagpur Sonegaon, India

Change the Weather History Date:

Monday, January 7, 2013

  Actual Average Record
Temperature  
Mean Temperature 64 °F -  
Max Temperature 75 °F 85 °F - ()
Min Temperature 53 °F 56 °F - ()
Degree Days  
Heating Degree Days 1    
Growing Degree Days 14 (Base 50)    
Moisture  
Dew Point 48 °F    
Average Humidity 55    
Maximum Humidity 94    
Minimum Humidity 31    
Precipitation  
Precipitation 0.00 in 0.02 in - ()
Sea Level Pressure  
Sea Level Pressure 29.97 in    
Wind  
Wind Speed 2 mph ()    
Max Wind Speed 5 mph    
Max Gust Speed -    
Visibility 2.0 miles    
Events      
T = Trace of Precipitation, MM = Missing Value Source: Averaged Metar Reports

Daily Weather History Graph

Daily Weather History Graph

Search for Another Location

Airport:

Trip Planner

Search our weather history database for the weather conditions in past years. The results will help you decide how hot, cold, wet, or windy it might be!

Date:

Astronomy

Jan. 07, 2013 Rise Set
Actual Time 6:52 AM IST 5:47 PM IST
Civil Twilight 6:28 AM IST 6:11 PM IST
Nautical Twilight 6:01 AM IST 6:39 PM IST
Astronomical Twilight 5:33 AM IST 7:06 PM IST
Moon 1:55 AM IST (1/7) 1:28 PM IST (1/7)
Length of Visible Light 11h 43m
Length of Day
10h 55m
Waning Crescent, 27% of the Moon is Illuminated
Jan 7
Waning Crescent
Jan 12
New
Jan 19
First Quarter
Jan 27
Full
Feb 3
Last Quarter

Hourly Weather History & Observations

Time (IST) Temp. Dew Point Humidity Pressure Visibility Wind Dir Wind Speed Gust Speed Precip Events Conditions
12:10 AM 62.6 °F 50.0 °F 63% 29.92 in 2.5 mi NNE 3.5 mph - N/A   Haze
1:10 AM 62.6 °F 48.2 °F 59% 29.92 in 2.5 mi NNE 3.5 mph - N/A   Haze
2:10 AM 60.8 °F 46.4 °F 59% 29.92 in 2.5 mi NNE 3.5 mph - N/A   Haze
2:30 AM 56 °F 47 °F 65% 29.94 in 2 mi Calm Calm - -   Haze
3:10 AM 59.0 °F 41.0 °F 51% 29.92 in 2.5 mi NNE 2.3 mph - N/A   Haze
4:10 AM 57.2 °F 41.0 °F 55% 29.95 in 2.5 mi Calm Calm - N/A   Haze
5:10 AM 57.2 °F 37.4 °F 48% 29.92 in 2.5 mi NNE 2.3 mph - N/A   Haze
6:10 AM 57.2 °F 35.6 °F 44% 29.95 in 2.5 mi NNE 2.3 mph - N/A   Haze
7:10 AM 57.2 °F 37.4 °F 48% 29.98 in 2.5 mi NNE 2.3 mph - N/A   Haze
8:10 AM 59.0 °F 39.2 °F 48% 30.01 in 2.2 mi NNE 2.3 mph - N/A   Haze
8:30 AM 56 °F 49 °F 72% 30.03 in 1 mi NNE 2.3 mph - -   Haze
9:10 AM 62.6 °F 39.2 °F 42% 30.06 in 2.2 mi NNE 2.3 mph - N/A   Haze
10:10 AM 66.2 °F 37.4 °F 35% 30.06 in 2.2 mi ENE 3.5 mph - N/A   Haze
11:10 AM 69.8 °F 41.0 °F 35% 30.04 in 2.2 mi ENE 3.5 mph - N/A   Haze
1:10 PM 75.2 °F 42.8 °F 31% 29.98 in 2.5 mi NNE 3.5 mph - N/A   Haze
2:10 PM 75.2 °F 42.8 °F 31% 29.95 in 2.5 mi NNW 4.6 mph - N/A   Haze
2:30 PM 74 °F 57 °F 46% 29.91 in 1 mi NE 3.5 mph - -   Haze
3:10 PM 75.2 °F 59.0 °F 57% 29.92 in 2.5 mi Calm Calm - N/A   Haze
4:10 PM 77.0 °F 75.2 °F 94% 29.92 in 2.5 mi ENE 2.3 mph - N/A   Haze
5:10 PM 77.0 °F 57.2 °F 50% 29.92 in 2.5 mi ENE 3.5 mph - N/A   Haze
5:30 PM 70 °F 57 °F 53% 29.92 in 1 mi NNE 3.5 mph - -   Haze
7:10 PM 64.4 °F 53.6 °F 68% 29.95 in 1.6 mi NE 2.3 mph - N/A   Haze
8:10 PM 62.6 °F 53.6 °F 72% 29.98 in 1.6 mi NE 2.3 mph - N/A   Haze
8:30 PM 64 °F 50 °F 51% 29.99 in 1 mi NNE 2.3 mph - -   Haze
9:10 PM 62.6 °F 50.0 °F 63% 30.01 in 1.9 mi NE 2.3 mph - N/A   Haze
10:10 PM 62.6 °F 50.0 °F 63% 30.01 in 1.9 mi NNE 2.3 mph - N/A   Haze
11:10 PM 60.8 °F 51.8 °F 72% 30.04 in 1.9 mi NE 2.3 mph - N/A   Haze
11:30 PM 55 °F 49 °F 73% 30.03 in 1 mi Calm Calm - -   Haze